Home > Time Zones > World Clock > Weather > Chile > Arica > Past weeks

Flag for Chile Weather past 2 weeks in Arica, Chile

Now
61 °F

Overcast.


Feels Like: 61 °F
Forecast: 60 / 65 °F
Wind: 5 mph from South

Location: Arica Airport

Current Time: Sep 22, 2014 at 1:24:01 AM

Latest Report: Sep 22, 2014 at 1:00 AM


Visibility: N/A

Pressure: 30.07 "Hg

Humidity: 72%

Dew point: 52 °F

Location of AricaLocation

Historic Weather in Arica — Graph

°F

Arica temperature yesterday

Maximum temperature yesterday: 64 °F (at 3:00 PM)
Minimum temperature yesterday: 59 °F (at 6:00 AM)
Average temperature yesterday: 61 °F

Past Weeks' High & Low Weather Summary

 TemperatureHumidityPressure
High68 °F (Sep 12, 12:00 PM)94% (Sep 9, 5:00 AM)30.12 "Hg (Sep 9, 5:00 AM)
Low57 °F (Sep 9, 5:00 AM)56% (Sep 12, 1:00 PM)29.83 "Hg (Sep 11, 5:00 PM)
Average61 °F75%30.00 "Hg
* Reported Sep 6 11:00 PM — Midnight between Sep 21 and Sep 22, Arica, Weather by CustomWeather, © 2014

Note: Actual official high and low records may vary slightly from our data, if they occured in-between our weather recording intervals... More about our weather records

Advertising

Arica weather history for previous 24 hours

 ConditionsComfort  
Time TempWeatherWind HumidityBarometerVisibility
12:00 AM
Sep 22
61 °FOvercast.6 mph77%30.07 "HgN/A
11:00 PM
Sep 21
61 °FOvercast.5 mph72%30.07 "HgN/A
10:00 PM61 °FOvercast.5 mph72%30.07 "HgN/A
9:00 PM61 °FOvercast.6 mph77%30.04 "HgN/A
8:00 PM61 °FOvercast.8 mph72%30.04 "HgN/A
7:00 PM61 °FOvercast.9 mph72%30.01 "HgN/A
6:00 PM63 °FOvercast.10 mph73%29.98 "HgN/A
5:00 PM64 °FScattered clouds.12 mph64%29.98 "HgN/A
4:00 PM64 °FSunny.12 mph64%29.95 "Hg10 mi
3:00 PM64 °FSunny.10 mph64%29.98 "Hg10 mi
2:00 PM63 °FSunny.10 mph68%29.98 "Hg10 mi
1:00 PM61 °FOvercast.8 mph72%30.01 "HgN/A
12:00 PM61 °FOvercast.7 mph72%30.01 "HgN/A
11:00 AM59 °FOvercast.6 mph77%30.04 "HgN/A
10:00 AM59 °FOvercast.3 mph77%30.04 "HgN/A
9:00 AM59 °FOvercast.2 mph77%30.01 "HgN/A
8:00 AM59 °FOvercast.5 mph77%30.01 "HgN/A
7:00 AM59 °FOvercast.No wind77%29.98 "HgN/A
6:00 AM59 °FOvercast.3 mph77%29.95 "HgN/A
5:00 AM61 °FOvercast.5 mph72%29.95 "HgN/A
4:00 AM61 °FOvercast.2 mph72%29.95 "HgN/A
3:00 AM61 °FOvercast.5 mph72%29.95 "HgN/A
2:00 AM61 °FOvercast.No wind72%29.98 "HgN/A
1:00 AM61 °FOvercast.No wind72%30.01 "HgN/A
Weather by CustomWeather, © 2014

See weather overviewHow to use our weather pages